Temperature
9 9 9 8 9 9 8 8 8 11 11 12 11 12 12 11 11 10 9 7 6 5 4 4 3 3 3 3 4 4 4 4 4 4 4 4 5 5 5 5 5 4 4 4
7 9 9 8 9 9 8 9 9 10 10 12 12 12 12 11 10 9 8 7 5 4 4 3 3 3 2 3 3 3 3 3 3 3 3 3 3 3 4 3 3 3 3 3
7 9 8 7 8 8 9 9 9 9 10 12 11 11 11 10 10 9 8 6 5 4 3 3 2 2 2 2 2 2 2 2 2 2 2 2 2 2 2 2 2 2 2 1
7 7 6 9 11 10 9 9 10 10 11 12 11 11 10 10 9 8 7 6 5 4 3 3 2 2 1 2 2 2 1 2 2 2 2 1 1 1 1 1 1 1 0 0
7 7 8 10 10 10 9 9 10 10 11 11 11 10 9 9 8 8 7 6 5 4 4 3 2 2 2 2 2 1 1 1 1 1 1 1 1 1 0 0 0 -0 -0 -0
7 7 8 10 10 10 10 9 11 10 10 11 10 8 8 8 8 7 7 6 5 4 4 3 3 2 2 2 2 2 1 1 1 1 1 1 0 0 -0 -0 -1 -1 -1 -1
7 7 8 10 9 9 8 9 10 10 10 10 9 9 8 8 7 7 7 6 5 5 4 4 3 3 2 2 2 2 1 1 1 1 1 0 0 -0 -0 -1 -1 -1 -1 -1
7 7 7 9 9 9 9 10 10 9 9 9 9 8 8 7 7 6 6 6 5 5 5 4 4 3 3 2 2 2 1 1 1 1 1 0 0 -0 -1 -1 -1 -1 -2 -2
8 8 10 10 10 9 10 9 9 9 9 9 8 8 7 7 6 6 6 6 6 5 5 4 4 3 3 2 2 2 1 1 1 1 1 0 -0 -0 -1 -1 -2 -2 -2 -2
9 10 10 10 10 9 9 9 9 8 8 8 8 8 7 7 6 6 6 6 5 5 5 4 4 3 3 2 2 2 1 1 1 1 1 0 -0 -0 -1 -1 -1 -2 -2 -3
8 9 10 10 10 9 9 8 8 8 8 8 7 7 7 6 6 6 6 5 5 5 5 4 4 3 3 2 2 2 1 1 1 1 0 0 -0 -0 -1 -1 -2 -2 -2 -3
8 10 9 9 9 9 8 8 7 7 7 7 7 7 7 6 6 6 6 5 5 5 5 4 4 3 3 2 2 2 1 1 1 1 0 0 -0 -1 -1 -1 -2 -2 -3 -3
9 9 9 8 8 8 7 7 7 7 7 7 6 6 6 6 6 5 5 5 5 5 5 4 4 3 3 2 2 2 1 1 1 0 0 -0 -0 -1 -1 -1 -2 -2 -3 -4
8 8 7 7 7 7 6 6 6 6 6 6 6 6 5 5 5 5 5 5 5 4 4 4 4 3 3 2 2 2 1 1 1 0 -0 -0 -1 -1 -2 -2 -2 -3 -3 -4
7 7 6 6 6 6 5 5 5 5 5 4 4 4 5 5 5 5 4 4 4 4 4 3 3 3 3 2 2 1 1 1 0 0 -0 -1 -1 -2 -2 -2 -3 -3 -4 -5
5 5 5 5 5 4 4 4 4 4 3 3 3 3 4 4 4 4 4 4 4 4 4 3 3 3 2 2 1 1 1 0 0 -0 -1 -1 -1 -2 -2 -2 -3 -4 -4 -5
4 4 4 4 3 3 3 3 3 2 2 2 2 3 3 3 3 3 3 3 3 3 3 3 3 2 2 1 1 1 0 -0 -0 -1 -1 -1 -2 -2 -2 -3 -3 -4 -4 -5
3 3 3 3 3 2 2 2 2 2 2 2 2 2 2 3 3 3 3 2 2 2 2 2 2 2 1 1 1 0 -0 -0 -1 -1 -1 -1 -2 -2 -3 -3 -3 -4 -5 -5
2 2 2 2 2 2 1 1 1 2 2 2 2 2 2 2 2 2 2 2 2 2 2 1 1 1 1 0 -0 -0 -1 -1 -1 -1 -2 -2 -2 -2 -3 -3 -4 -4 -5 -5
1 1 1 2 1 1 1 1 1 1 1 1 1 1 1 1 1 1 1 2 1 1 1 1 1 0 0 -0 -1 -1 -1 -1 -1 -2 -2 -2 -2 -3 -3 -3 -4 -4 -5 -5
0 1 1 1 1 1 1 1 1 1 1 1 1 1 1 1 1 1 1 1 1 0 0 -0 -0 -0 -1 -1 -1 -2 -2 -2 -2 -2 -2 -2 -3 -3 -3 -4 -4 -4 -5 -5
0 1 1 1 1 1 1 0 0 0 0 0 0 0 0 0 0 0 0 -0 -0 -0 -0 -1 -1 -1 -1 -1 -2 -2 -2 -2 -2 -2 -2 -3 -3 -3 -3 -4 -4 -5 -5 -5
0 0 0 0 0 0 -0 -0 -0 -0 -0 -0 -0 -0 -1 -1 -1 -1 -0 -1 -1 -1 -1 -1 -1 -2 -2 -2 -2 -2 -2 -3 -3 -3 -3 -3 -3 -3 -4 -4 -4 -5 -5 -5
0 0 0 -0 -0 -0 -0 -1 -1 -1 -1 -1 -1 -1 -1 -1 -1 -1 -1 -1 -1 -1 -1 -2 -2 -2 -2 -2 -2 -2 -3 -3 -3 -3 -3 -3 -4 -4 -4 -4 -5 -5 -5 -5
-0 -0 -0 -0 -1 -1 -1 -1 -1 -1 -1 -1 -2 -2 -2 -2 -2 -2 -2 -2 -2 -2 -2 -2 -2 -3 -3 -3 -3 -3 -3 -3 -3 -3 -3 -4 -4 -4 -4 -5 -5 -5 -5 -6
-0 -0 -1 -1 -1 -1 -1 -1 -2 -2 -2 -2 -2 -2 -2 -2 -2 -2 -2 -2 -2 -2 -2 -2 -3 -3 -3 -3 -3 -3 -3 -4 -4 -4 -4 -4 -4 -4 -5 -5 -5 -5 -5 -6
-1 -1 -1 -1 -1 -2 -2 -2 -2 -2 -2 -2 -2 -2 -2 -2 -2 -2 -2 -2 -3 -3 -3 -3 -3 -3 -3 -3 -3 -3 -4 -4 -4 -5 -4 -4 -5 -5 -5 -5 -5 -5 -6 -6
Wind_Speed
2 3 3 5 8 11 10 8 5 2 4 8 8 7 5 5 5 5 6 6 5 3 3 4 5 5 5 6 6 6 6 7 7 7 7 8 8 8 9 10 10 9 9 9
1 3 3 5 8 10 11 11 9 6 4 1 4 5 4 4 4 4 6 6 5 4 4 4 5 5 5 5 6 6 6 6 6 7 7 7 8 8 9 10 10 10 10 10
2 4 2 7 13 14 11 8 10 11 7 4 4 4 3 3 3 5 6 6 5 4 4 4 4 4 4 5 5 6 6 6 6 7 7 8 8 9 9 9 9 10 10 10
1 1 6 4 2 7 11 11 10 7 6 5 3 2 2 3 4 6 7 6 6 5 5 4 4 4 4 5 5 5 6 6 6 6 7 7 8 9 9 8 9 9 9 9
2 4 7 4 4 4 6 6 11 10 7 3 2 1 1 4 6 7 7 7 6 6 5 5 4 4 5 5 5 5 6 6 6 6 6 7 7 7 7 7 8 8 7 8
3 3 4 2 5 3 3 4 6 9 7 5 4 2 3 6 7 7 7 6 6 6 5 5 5 4 5 5 5 5 5 5 5 6 6 6 6 6 6 6 6 6 6 6
5 4 5 3 6 4 3 2 6 6 6 4 3 2 6 7 7 7 7 7 7 6 5 5 5 5 6 5 4 4 4 5 5 5 5 5 5 4 5 5 5 4 4 4
5 5 5 6 6 3 3 5 6 6 5 4 4 5 7 7 7 8 8 7 7 6 6 5 5 6 6 5 4 4 4 4 4 4 4 4 4 3 2 3 3 3 3 3
6 5 2 6 4 4 4 4 4 4 3 3 3 3 5 6 7 8 8 8 7 7 7 5 6 6 7 6 6 5 5 4 4 4 3 3 3 2 1 1 2 1 2 2
3 3 6 7 5 4 4 4 4 3 2 2 3 3 4 5 7 8 9 9 8 8 8 7 7 7 7 8 7 6 6 5 4 4 3 2 2 2 2 3 2 2 2 2
5 4 2 5 6 6 5 5 4 3 1 1 2 3 4 5 7 8 8 8 9 9 9 9 8 8 8 8 7 6 6 5 4 4 4 3 4 4 4 4 4 3 2 2
4 2 3 3 5 6 6 4 3 1 1 1 3 4 4 5 5 7 8 8 9 9 9 9 9 8 8 8 7 7 6 5 4 3 3 4 4 3 4 3 4 4 3 2
1 4 5 7 7 6 5 4 2 1 3 3 3 3 4 4 4 6 8 9 10 10 9 9 9 9 8 8 7 7 6 6 4 4 3 3 3 3 2 1 2 1 0 1
2 3 3 4 5 5 4 2 2 3 3 3 3 3 3 4 4 6 7 9 9 9 9 9 9 9 9 8 7 7 7 7 6 4 4 3 3 2 2 1 1 2 3 3
2 3 4 5 5 4 2 1 2 3 3 3 3 3 4 4 5 6 6 6 8 8 9 9 10 9 9 9 8 8 7 5 5 4 4 3 3 2 1 1 1 2 2 3
4 4 4 3 3 2 2 2 3 4 4 4 4 4 4 5 4 4 5 7 8 10 9 9 10 9 10 9 9 7 6 8 7 5 4 4 3 3 2 2 2 2 3 2
4 3 3 1 1 1 2 3 4 5 5 6 6 5 4 4 4 4 4 6 7 7 8 9 9 9 10 10 9 7 6 7 9 5 4 4 4 3 3 3 3 3 3 3
5 5 4 3 3 3 4 4 4 5 6 6 7 5 4 4 5 4 4 4 4 5 6 7 8 9 10 10 8 7 7 6 5 5 4 4 4 3 3 3 3 3 3 4
5 5 5 5 4 3 3 4 5 6 6 6 6 5 4 3 3 2 3 5 6 6 6 7 11 10 9 10 10 6 7 7 6 5 4 6 5 4 4 4 4 4 4 4
5 5 5 4 4 3 4 5 6 6 6 6 5 5 4 3 2 2 3 5 5 4 5 8 9 8 9 10 11 6 7 7 7 6 5 5 5 5 5 4 4 4 4 4
5 4 4 4 3 3 4 5 5 6 6 6 5 4 4 3 2 1 2 4 3 3 5 9 8 7 8 10 12 7 7 7 7 6 6 6 5 5 5 5 5 5 5 4
3 3 4 4 4 4 4 4 5 6 6 6 5 5 4 3 2 2 3 3 2 4 4 5 5 9 11 12 7 7 7 7 6 6 6 6 6 6 5 5 5 5 5 5
2 3 3 4 4 4 4 4 5 5 6 6 5 5 4 3 2 3 3 2 2 5 4 5 7 12 15 10 7 8 8 7 7 6 6 6 6 6 5 5 5 5 5 5
1 2 2 3 4 4 4 5 5 5 5 5 4 4 4 3 3 2 2 4 4 6 4 6 11 13 13 7 7 7 7 7 6 6 6 5 5 5 5 5 5 5 5 6
1 1 2 2 3 3 4 5 5 5 5 4 4 4 3 2 3 4 3 4 5 5 3 6 10 12 8 6 7 7 6 6 6 6 6 5 5 5 5 5 5 5 5 5
2 2 2 2 2 2 3 3 3 4 4 4 4 4 3 3 4 4 3 4 5 5 2 3 4 7 5 6 6 6 6 6 7 6 6 6 6 6 5 6 6 5 5 5
4 3 3 3 3 2 2 3 3 4 4 4 5 4 4 4 4 4 4 3 3 2 2 2 3 4 4 5 5 6 6 5 5 6 6 6 5 5 6 6 5 5 5 5
Wind_Direction
49 45 124 191 199 199 201 209 213 248 178 177 174 169 150 142 148 147 138 130 118 101 76 65 57 45 35 29 22 18 30 35 32 32 31 30 33 37 41 44 45 44 47 48
237 207 213 240 229 214 212 222 238 265 282 266 119 120 137 153 155 157 139 131 123 111 89 73 63 46 35 34 31 32 38 41 38 41 41 40 41 44 49 49 49 51 52 53
212 164 260 252 226 214 208 202 210 226 228 193 163 170 164 151 164 150 134 130 127 117 98 84 76 62 50 47 45 45 45 46 46 49 51 49 52 53 52 51 53 55 55 58
202 129 244 237 73 191 208 216 211 217 208 189 165 122 120 144 152 139 135 136 131 119 108 97 89 86 81 70 64 58 52 50 51 56 59 58 59 59 57 58 59 59 59 60
216 245 265 210 169 168 185 221 208 214 221 212 110 65 156 110 106 119 123 121 121 119 119 116 106 103 102 88 79 72 63 55 53 61 67 67 65 62 61 66 65 63 62 62
220 253 270 94 128 142 172 239 184 183 190 176 147 207 179 137 120 117 119 124 127 127 126 124 119 115 108 97 88 78 73 70 67 69 75 75 72 70 71 74 76 76 71 68
233 248 273 129 136 143 187 152 99 109 118 126 154 153 146 141 137 138 137 137 135 136 136 132 129 123 115 111 106 101 99 94 87 83 86 87 82 79 86 88 85 81 80 75
202 226 244 141 148 183 119 90 87 89 90 97 101 117 141 152 154 152 150 153 153 149 147 144 143 138 135 141 142 135 126 116 108 102 99 97 94 94 109 120 112 108 97 77
200 211 152 162 155 113 103 102 95 101 103 112 136 168 170 170 169 169 169 169 163 158 158 163 165 161 161 168 165 159 149 138 132 126 122 126 122 111 105 105 107 107 102 96
259 233 178 175 171 144 131 125 106 101 109 147 189 198 187 183 181 179 178 175 170 168 175 180 183 179 169 168 173 169 161 154 148 141 135 121 97 58 51 40 41 59 70 70
245 256 204 184 179 159 135 116 105 96 102 228 240 227 209 203 194 186 182 177 176 182 187 183 178 176 167 169 173 168 160 157 154 150 140 113 83 60 75 68 67 73 71 56
229 229 184 148 123 114 120 117 98 70 312 277 249 246 230 219 204 188 183 179 182 188 188 179 174 174 171 173 174 167 164 167 169 163 154 148 139 103 75 107 80 69 64 42
218 49 75 103 93 84 95 86 56 325 287 284 272 253 238 231 210 191 186 186 191 192 186 178 177 177 174 173 175 173 172 173 169 167 168 167 159 159 177 188 187 185 207 336
89 111 135 130 119 95 78 48 344 302 287 278 277 272 253 239 222 205 199 194 187 184 182 180 181 181 173 170 171 173 169 172 169 171 169 167 166 161 161 181 245 258 231 244
81 78 100 97 101 99 78 16 329 316 317 309 296 276 259 247 236 223 205 183 176 181 184 183 186 182 168 168 171 172 167 169 170 160 155 154 152 154 179 212 249 270 273 263
115 97 95 100 97 76 33 351 327 320 323 314 302 288 272 257 248 226 194 176 181 192 191 188 191 179 167 169 171 172 173 172 165 159 158 161 169 185 205 224 244 260 269 262
134 155 150 143 123 40 7 350 330 319 314 307 300 292 282 264 249 230 202 189 194 197 191 191 189 172 171 175 174 173 167 171 171 162 170 175 181 195 206 216 236 249 257 265
68 79 82 75 54 15 353 344 332 322 314 309 306 290 271 252 243 233 208 185 184 193 193 187 176 170 176 178 176 170 166 167 170 176 175 178 186 193 200 217 238 252 257 273
69 68 60 52 37 7 342 336 330 321 316 313 309 298 282 268 256 230 182 183 198 212 205 185 180 177 180 184 176 168 165 166 171 176 176 194 198 196 205 218 232 242 250 255
74 64 56 46 30 10 354 343 332 324 325 322 316 315 312 302 282 220 197 213 219 217 184 182 182 183 183 184 178 171 170 172 176 179 181 187 195 203 209 218 228 237 243 250
68 60 51 35 17 15 6 347 338 334 333 335 334 329 320 313 293 230 225 246 238 189 181 190 188 186 182 183 181 175 176 178 181 183 187 194 200 205 211 220 230 239 242 249
59 48 38 22 10 6 2 357 348 342 346 347 345 341 335 328 313 283 253 252 238 200 192 194 191 191 188 184 181 178 180 182 185 185 188 194 201 209 215 220 228 237 242 247
43 31 23 12 356 342 352 5 355 347 344 342 340 338 329 312 295 282 289 278 237 225 213 204 202 199 194 187 182 182 185 187 189 191 193 197 203 208 213 221 226 234 241 248
29 18 5 349 341 344 347 342 337 329 325 323 328 331 328 322 314 292 290 292 273 253 229 218 211 206 198 187 182 185 189 192 193 191 192 196 201 205 212 220 228 235 241 251
273 294 303 321 328 323 321 324 326 327 331 328 328 333 333 320 301 302 299 290 285 274 244 226 219 211 198 181 187 190 191 195 197 192 193 196 202 208 216 221 227 235 243 250
237 258 266 265 268 288 305 312 313 317 323 323 323 322 321 315 307 305 300 293 289 280 255 221 216 212 192 184 189 190 191 201 211 204 196 198 205 210 218 224 231 235 243 251
238 246 256 270 264 258 274 286 293 303 310 312 312 312 315 314 311 309 305 299 294 279 247 222 211 200 188 185 187 190 191 194 196 196 195 199 205 212 218 223 229 237 244 252
Height
1468 1466 1468 1470 1471 1473 1478 1477 1478 1470 1468 1468 1469 1471 1473 1475 1476 1478 1478 1478 1478 1478 1478 1477 1476 1475 1474 1473 1472 1471 1469 1468 1467 1465 1464 1463 1461 1460 1458 1457 1456 1455 1454 1453
1472 1468 1468 1470 1468 1469 1471 1472 1471 1470 1469 1465 1466 1469 1471 1473 1474 1475 1475 1476 1476 1475 1475 1474 1473 1473 1472 1471 1470 1469 1468 1467 1466 1464 1463 1462 1460 1459 1458 1456 1456 1455 1454 1453
1470 1466 1469 1471 1461 1462 1463 1463 1466 1469 1467 1464 1466 1467 1469 1470 1471 1472 1472 1472 1473 1473 1472 1472 1471 1471 1470 1470 1469 1468 1467 1466 1465 1464 1463 1461 1460 1459 1458 1457 1457 1456 1455 1454
1468 1472 1478 1457 1450 1450 1456 1458 1459 1459 1460 1461 1463 1465 1466 1467 1468 1468 1469 1470 1470 1470 1470 1470 1470 1470 1469 1469 1468 1468 1467 1466 1465 1464 1463 1462 1461 1460 1459 1459 1458 1458 1457 1457
1468 1467 1460 1451 1450 1450 1453 1454 1453 1456 1457 1459 1461 1463 1464 1465 1465 1466 1467 1468 1468 1469 1469 1469 1469 1469 1468 1468 1468 1468 1467 1466 1466 1465 1464 1463 1463 1462 1462 1461 1461 1460 1460 1459
1466 1468 1460 1451 1449 1448 1452 1453 1447 1450 1454 1457 1460 1464 1464 1463 1464 1464 1465 1466 1467 1467 1468 1468 1468 1468 1468 1468 1468 1468 1468 1467 1467 1466 1466 1465 1465 1464 1464 1464 1463 1462 1462 1461
1465 1464 1456 1449 1448 1451 1457 1453 1449 1450 1453 1456 1458 1460 1461 1462 1462 1463 1464 1465 1466 1466 1467 1467 1467 1468 1468 1468 1469 1469 1469 1469 1468 1468 1468 1467 1467 1466 1466 1465 1465 1464 1463 1462
1460 1464 1460 1449 1449 1451 1452 1450 1450 1452 1454 1456 1457 1458 1459 1460 1461 1461 1462 1463 1464 1465 1466 1466 1467 1468 1468 1469 1469 1470 1470 1470 1470 1469 1469 1469 1469 1468 1467 1467 1466 1465 1464 1463
1453 1454 1447 1446 1447 1449 1449 1450 1451 1453 1454 1455 1456 1457 1458 1458 1459 1459 1460 1462 1463 1464 1465 1466 1466 1467 1468 1469 1470 1470 1470 1470 1470 1470 1470 1470 1469 1469 1468 1468 1467 1466 1465 1463
1445 1443 1444 1445 1446 1447 1449 1450 1451 1452 1453 1454 1454 1455 1455 1456 1456 1457 1458 1459 1460 1462 1463 1464 1465 1466 1467 1468 1469 1470 1470 1470 1470 1470 1470 1470 1470 1469 1468 1467 1466 1465 1464 1463
1444 1442 1442 1443 1444 1446 1447 1448 1449 1450 1451 1451 1452 1452 1453 1453 1453 1454 1455 1456 1457 1459 1460 1462 1463 1464 1466 1467 1468 1468 1469 1469 1470 1470 1470 1469 1469 1469 1468 1467 1466 1465 1464 1462
1442 1439 1440 1441 1442 1444 1445 1447 1447 1448 1449 1449 1449 1449 1449 1450 1450 1451 1451 1452 1454 1455 1457 1459 1460 1462 1463 1465 1466 1467 1467 1468 1468 1468 1468 1468 1468 1467 1466 1466 1465 1464 1462 1461
1437 1438 1438 1440 1441 1442 1444 1445 1445 1446 1446 1446 1446 1446 1446 1446 1446 1446 1447 1448 1449 1451 1453 1455 1457 1458 1460 1462 1463 1464 1465 1466 1466 1466 1466 1466 1466 1465 1465 1464 1463 1462 1460 1458
1435 1436 1438 1439 1440 1441 1442 1442 1443 1443 1443 1442 1442 1442 1442 1442 1442 1442 1443 1444 1445 1447 1449 1450 1452 1454 1456 1458 1460 1461 1462 1463 1463 1464 1464 1464 1464 1463 1462 1461 1460 1458 1457 1455
1433 1434 1436 1437 1438 1439 1439 1440 1440 1439 1439 1439 1438 1438 1438 1437 1437 1438 1438 1439 1441 1442 1443 1445 1447 1449 1452 1454 1455 1457 1458 1460 1460 1461 1462 1462 1461 1461 1460 1459 1458 1456 1454 1452
1431 1432 1433 1435 1436 1436 1437 1437 1436 1436 1436 1435 1434 1434 1434 1433 1433 1433 1434 1434 1435 1436 1438 1440 1442 1445 1447 1449 1451 1453 1454 1456 1457 1458 1458 1459 1458 1458 1457 1456 1454 1453 1451 1449
1430 1430 1431 1432 1433 1434 1434 1434 1434 1433 1432 1431 1430 1430 1429 1429 1429 1429 1429 1430 1431 1432 1434 1436 1438 1440 1442 1444 1446 1448 1450 1452 1453 1454 1455 1455 1455 1454 1454 1452 1451 1449 1448 1446
1428 1429 1430 1431 1431 1431 1431 1431 1430 1430 1429 1428 1427 1426 1425 1425 1425 1425 1425 1426 1426 1427 1428 1430 1432 1434 1437 1439 1441 1443 1445 1447 1449 1450 1451 1451 1451 1451 1450 1449 1447 1446 1444 1443
1426 1427 1428 1429 1429 1429 1429 1428 1428 1427 1425 1424 1423 1422 1421 1421 1421 1421 1421 1422 1422 1422 1424 1426 1427 1429 1431 1433 1436 1438 1440 1442 1444 1445 1446 1447 1447 1447 1446 1445 1444 1442 1440 1439
1426 1427 1427 1428 1428 1428 1427 1426 1425 1424 1423 1421 1420 1419 1418 1418 1418 1417 1417 1418 1418 1418 1420 1421 1422 1423 1426 1428 1430 1433 1435 1437 1439 1441 1442 1443 1443 1443 1442 1441 1440 1438 1437 1435
1426 1427 1427 1427 1427 1426 1426 1425 1423 1422 1420 1419 1418 1417 1416 1415 1415 1414 1414 1414 1415 1415 1415 1416 1417 1418 1420 1422 1425 1427 1430 1432 1434 1436 1438 1438 1439 1438 1438 1437 1436 1434 1433 1431
1427 1427 1427 1427 1426 1425 1425 1423 1422 1420 1419 1417 1416 1415 1414 1413 1412 1412 1411 1411 1411 1410 1410 1411 1412 1413 1415 1417 1419 1422 1425 1428 1430 1432 1433 1434 1434 1434 1434 1433 1432 1430 1429 1427
1428 1428 1427 1427 1426 1425 1423 1422 1421 1419 1418 1416 1415 1413 1412 1411 1410 1409 1408 1408 1407 1406 1406 1406 1407 1408 1410 1412 1415 1418 1420 1423 1425 1427 1429 1430 1430 1430 1429 1428 1427 1426 1425 1423
1428 1428 1427 1426 1425 1424 1422 1421 1419 1418 1416 1415 1413 1412 1410 1409 1408 1407 1405 1404 1403 1403 1402 1403 1403 1404 1406 1408 1411 1414 1416 1419 1421 1423 1424 1425 1425 1425 1425 1424 1423 1422 1420 1419
1427 1427 1426 1425 1423 1422 1421 1419 1418 1417 1415 1413 1412 1410 1408 1407 1405 1404 1402 1401 1400 1400 1399 1399 1400 1401 1403 1404 1407 1410 1412 1415 1417 1418 1420 1420 1421 1421 1420 1420 1419 1417 1416 1414
1425 1425 1424 1423 1422 1420 1419 1418 1416 1415 1413 1411 1410 1408 1407 1405 1403 1401 1400 1399 1397 1397 1396 1397 1397 1398 1400 1402 1404 1406 1408 1410 1412 1414 1415 1416 1416 1416 1416 1415 1414 1413 1412 1410
1422 1422 1421 1420 1419 1418 1417 1416 1414 1413 1411 1409 1407 1406 1404 1402 1401 1399 1397 1396 1395 1394 1394 1394 1395 1395 1397 1398 1400 1402 1404 1406 1407 1409 1410 1411 1411 1411 1411 1411 1410 1409 1407 1406